Regional Weather Roundup
Issued by NWS

Home | Current Version | Previous Version | Graphics & Text | Print | Product List | Glossary On
Versions: 1 2 3 4 5 6 7 8 9 10 11 12 13 14 15 16 17 18 19 20 21 22 23 24 25 26 27 28 29 30 31 32 33 34 35 36 37 38 39 40 41 42 43 44 45 46 47 48 49 50
000
ASUS44 KMEG 300110
RWRTN
TENNESSEE HOURLY STATE WEATHER ROUNDUP
NATIONAL WEATHER SERVICE MEMPHIS TN
800 PM CDT SAT AUG 29 2015

TNZ002-004-019-021-049-052-054-088>092-300200-
WEST TENNESSEE

CITY           SKY/WX    TMP DP  RH WIND       PRES   REMARKS
MEMPHIS INTL   MOCLDY    84  65  52 S5        30.00S
NWS MEMPHIS      N/A     79 N/A N/A MISG        N/A
JACKSON        MOCLDY    81  68  64 S5        30.02S
DYERSBURG      CLOUDY   N/A N/A N/A MISG        N/A
UNION CITY     CLEAR     79  68  69 CALM      30.00S
PARIS          CLEAR     75  66  73 NW5       30.03S
LEXINGTON      CLEAR     79  72  78 SE5       30.05R
$$

TNZ008-025-027-028-033-062-065-066-300200-
NORTH MIDDLE TENNESSEE

CITY           SKY/WX    TMP DP  RH WIND       PRES   REMARKS
NASHVILLE      MOCLDY    74  65  73 S9G18     30.09R
CLARKSVILLE    PTCLDY    80  70  71 S6        30.04R
SMYRNA         MOCLDY    74  69  84 S6        30.10S
COOKEVILLE     CLEAR     72  70  94 SW6       30.12S
CROSSVILLE     CLOUDY    74  66  76 CALM      30.17R
$$

TNZ061-075-076-078-094-096-097-300200-
SOUTH MIDDLE TENNESSEE

CITY           SKY/WX    TMP DP  RH WIND       PRES   REMARKS
FAYETTEVILLE   CLEAR     68  66  94 CALM      30.12R
TULLAHOMA      CLEAR     70  66  88 SE8       30.13F
WINCHESTER     CLOUDY    70  68  94 E7        30.13F
MCMINNVILLE      N/A     70  70 100 VRB5      30.13S
COLUMBIA       CLEAR     73  73 100 CALM      30.07S
SHELBYVILLE    CLEAR     72  70  94 CALM      30.13R
$$

TNZ017-018-042-046-047-300200-
NORTHEAST TENNESSEE

CITY           SKY/WX    TMP DP  RH WIND       PRES   REMARKS
TRI CITIES     CLOUDY    72  66  81 CALM      30.15S
ELIZABETHTON   CLEAR     68  64  88 CALM      30.17R
$$

TNZ012-013-036-069-073-074-300200-
CENTRAL EAST TENNESSEE

CITY           SKY/WX    TMP DP  RH WIND       PRES   REMARKS
KNOXVILLE      CLOUDY    77  69  76 CALM      30.11R
OAK RIDGE      MOCLDY    81  64  56 CALM      30.13R
GATLINBURG     MOCLDY    77  63  61 CALM      30.11R
MORRISTOWN     CLEAR     75  64  69 E3        30.14S
$$

TNZ083-085-099-300200-
SOUTHEAST TENNESSEE

CITY           SKY/WX    TMP DP  RH WIND       PRES   REMARKS
CHATTANOOGA    CLOUDY    79  64  60 SW7       30.13R
$$

SKY/WX REPORTED AS FAIR MEANS FEW OR NO CLOUDS BELOW
12 THOUSAND FEET.



USA.gov is the U.S. government's official web portal to all federal, state and local government web resources and services.